Nashville, TN

1:37 AM CDT on June 26, 2017 (GMT -0500)
Nashville International

Weather History for KBNA - June, 2014

Change the Weather History Date:

Wednesday, June 4, 2014

  Actual Average Record
Temperature  
Mean Temperature 80 °F 73 °F  
Max Temperature 89 °F 83 °F 99 °F (1911)
Min Temperature 71 °F 62 °F 48 °F (1888)
Degree Days  
Heating Degree Days 0    
Month to date heating degree days 0  
Since 1 June heating degree days 0  
Since 1 July heating degree days 3921  
Cooling Degree Days 15    
Month to date cooling degree days 57  
Year to date cooling degree days 321  
Since 1 June cooling degree days 57  
Growing Degree Days 30 (Base 50)    
Moisture  
Dew Point 70 °F    
Average Humidity 73    
Maximum Humidity 93    
Minimum Humidity 52    
Precipitation  
Precipitation 0.08 in 0.15 in 3.41 in (1998)
Month to date precipitation 0.08 0.61  
Year to date precipitation 21.90 21.91  
Snow  
Snow 0.00 in - 0.00 in (2002)
Month to date snowfall 0.0  
Since 1 June snowfall 0.0  
Since 1 July snowfall 1.6  
Snow Depth 0.00 in    
Sea Level Pressure  
Sea Level Pressure 29.88 in    
Wind  
Wind Speed 8 mph (SW)    
Max Wind Speed 26 mph    
Max Gust Speed 31 mph    
Visibility 10 miles    
Events      
T = Trace of Precipitation, MM = Missing Value Source: NWS Daily Summary

Daily Weather History Graph

Daily Weather History Graph

Search for Another Location

Airport or City:

Trip Planner

Search our weather history database for the weather conditions in past years. The results will help you decide how hot, cold, wet, or windy it might be!

Date:

Astronomy

Jun. 04, 2014 Rise Set
Actual Time 5:30 AM CDT 8:00 PM CDT
Civil Twilight 5:00 AM CDT 8:30 PM CDT
Nautical Twilight 4:23 AM CDT 9:07 PM CDT
Astronomical Twilight 3:42 AM CDT 9:48 PM CDT
Moon 11:40 AM CDT (6/4) 12:06 AM CDT (6/4)
Length of Visible Light 15h 29m
Length of Day
14h 30m
Waxing Crescent, 39% of the Moon is Illuminated
Jun 4
Waxing Crescent
Jun 5
First Quarter
Jun 12
Full
Jun 19
Last Quarter
Jun 27
New

Hourly Weather History & Observations

Time (CDT) Temp. Heat Index Dew Point Humidity Pressure Visibility Wind Dir Wind Speed Gust Speed Precip Events Conditions
12:53 AM 75.2 °F - 69.8 °F 83% 29.97 in 10.0 mi SSW 5.8 mph - N/A   Clear
1:53 AM 73.9 °F - 69.1 °F 85% 29.93 in 10.0 mi Calm Calm - N/A   Clear
2:53 AM 75.0 °F - 69.1 °F 82% 29.93 in 10.0 mi SSW 6.9 mph - N/A   Clear
3:53 AM 73.0 °F - 69.1 °F 87% 29.94 in 10.0 mi SSW 5.8 mph - N/A   Clear
4:53 AM 72.0 °F - 69.1 °F 91% 29.95 in 10.0 mi South 5.8 mph - N/A   Partly Cloudy
5:53 AM 72.0 °F - 70.0 °F 93% 29.95 in 10.0 mi SSW 6.9 mph - N/A   Mostly Cloudy
6:53 AM 75.0 °F - 70.0 °F 84% 29.93 in 10.0 mi South 6.9 mph - N/A   Mostly Cloudy
7:53 AM 77.0 °F - 70.0 °F 79% 29.95 in 10.0 mi SSW 6.9 mph - N/A   Mostly Cloudy
8:53 AM 82.0 °F 85.9 °F 70.0 °F 67% 29.98 in 10.0 mi WSW 8.1 mph - N/A   Overcast
9:53 AM 82.9 °F 87.0 °F 70.0 °F 65% 29.96 in 10.0 mi Variable 6.9 mph - N/A   Overcast
10:53 AM 82.0 °F 85.9 °F 70.0 °F 67% 29.94 in 10.0 mi WSW 9.2 mph - N/A   Overcast
11:53 AM 82.9 °F 87.0 °F 70.0 °F 65% 29.85 in 10.0 mi SSW 13.8 mph 20.7 mph N/A   Overcast
12:53 PM 86.0 °F 90.1 °F 69.1 °F 57% 29.83 in 10.0 mi SW 16.1 mph 28.8 mph N/A   Mostly Cloudy
1:53 PM 88.0 °F 92.1 °F 69.1 °F 53% 29.82 in 10.0 mi SW 11.5 mph 21.9 mph N/A   Mostly Cloudy
2:53 PM 86.0 °F 90.1 °F 69.1 °F 57% 29.83 in 10.0 mi SW 8.1 mph - N/A   Mostly Cloudy
3:53 PM 89.1 °F 93.7 °F 69.1 °F 52% 29.82 in 10.0 mi West 9.2 mph 18.4 mph N/A   Mostly Cloudy
4:53 PM 87.1 °F 91.3 °F 69.1 °F 55% 29.80 in 10.0 mi West 11.5 mph 18.4 mph N/A   Overcast
5:53 PM 86.0 °F 90.1 °F 69.1 °F 57% 29.81 in 10.0 mi SW 9.2 mph - N/A   Overcast
6:53 PM 84.0 °F 88.4 °F 70.0 °F 63% 29.82 in 10.0 mi West 5.8 mph - N/A   Mostly Cloudy
7:53 PM 80.1 °F 83.8 °F 72.0 °F 76% 29.82 in 10.0 mi SW 6.9 mph - 0.02 in   Mostly Cloudy
8:53 PM 80.1 °F 83.6 °F 71.1 °F 74% 29.82 in 10.0 mi SSW 5.8 mph - N/A   Mostly Cloudy
9:53 PM 79.0 °F - 71.1 °F 77% 29.83 in 10.0 mi Calm Calm - N/A   Mostly Cloudy
10:53 PM 77.0 °F - 71.1 °F 82% 29.84 in 10.0 mi SSW 6.9 mph - N/A   Overcast
11:53 PM 78.1 °F - 71.1 °F 79% 29.87 in 10.0 mi Calm Calm - N/A   Overcast